This demonstration page uses our WeatherBlox Daily Observations layout. Learn more.

Hourly Observations for February 8, 2017

Temp ( °F °C ) Dew Point ( °F °C ) Humidity (%) Winds ( mph kmh ) Pressure ( in mb ) Visibility ( mi km ) Precip ( " mm )
12:15 am 00:15 Partly Cloudy 64 18 55 13 73 73 SW 12 19 29.59 1002 10 16.09344 0 0
12:35 am 00:35 Clear 64 18 54 12 68 68 SSW 12 19 29.56 1001 10 16.09344 0 0
12:55 am 00:55 Clear 64 18 54 12 68 68 SSW 10 17 29.56 1001 10 16.09344 0 0
1:15 am 01:15 Clear 64 18 54 12 68 68 SW 10 17 29.59 1002 10 16.09344 0 0
1:35 am 01:35 Partly Cloudy 64 18 54 12 68 68 SW 7 11 29.59 1002 10 16.09344 0 0
1:55 am 01:55 Partly Cloudy 63 17 54 12 73 73 SSW 8 13 29.59 1002 10 16.09344 0 0
2:15 am 02:15 Partly Cloudy 64 18 54 12 68 68 SW 8 13 29.59 1002 10 16.09344 0 0
2:35 am 02:35 Partly Cloudy 63 17 54 12 73 73 SW 8 13 29.59 1002 10 16.09344 0 0
2:55 am 02:55 Clear 63 17 54 12 73 73 WSW 8 13 29.59 1002 10 16.09344 0 0
3:15 am 03:15 Partly Cloudy 63 17 54 12 73 73 SW 5 7 29.59 1002 10 16.09344 0 0
3:35 am 03:35 Mostly Cloudy 63 17 52 11 68 68 SSW 5 7 29.59 1002 10 16.09344 0 0
3:55 am 03:55 Mostly Cloudy 61 16 52 11 72 72 S 6 9 29.59 1002 10 16.09344 0 0
4:15 am 04:15 Mostly Cloudy 61 16 52 11 72 72 SSW 6 9 29.59 1002 10 16.09344 0 0
4:35 am 04:35 Mostly Cloudy 61 16 52 11 72 72 WSW 7 11 29.59 1002 10 16.09344 0 0
4:55 am 04:55 Cloudy 63 17 52 11 68 68 WSW 3 6 29.59 1002 10 16.09344 0 0
5:15 am 05:15 Mostly Cloudy 61 16 50 10 68 68 S 3 6 29.59 1002 10 16.09344 0 0
5:35 am 05:35 Mostly Cloudy 59 15 52 11 77 77 SSW 5 7 29.59 1002 10 16.09344 0 0
5:55 am 05:55 Mostly Cloudy 59 15 52 11 77 77 SSW 5 7 29.62 1003 10 16.09344 0 0
6:15 am 06:15 Partly Cloudy 55 13 50 10 82 82 W 3 6 29.62 1003 10 16.09344 0 0
6:35 am 06:35 Clear 57 14 52 11 82 82 SSW 6 9 29.59 1002 10 16.09344 0 0
6:55 am 06:55 Clear 54 12 50 10 88 88 WSW 5 7 29.62 1003 10 16.09344 0 0
7:15 am 07:15 Sunny 52 11 50 10 94 94 Calm 29.62 1003 10 16.09344 0 0
7:35 am 07:35 Sunny 54 12 50 10 88 88 Calm 29.62 1003 10 16.09344 0 0
7:55 am 07:55 Sunny 52 11 50 10 94 94 W 5 7 29.62 1003 10 16.09344 0 0
8:15 am 08:15 Sunny 52 11 50 10 94 94 W 5 7 29.65 1004 10 16.09344 0 0
8:35 am 08:35 Sunny 55 13 52 11 88 88 SW 5 7 29.65 1004 10 16.09344 0 0
8:55 am 08:55 Sunny 59 15 52 11 77 77 SSW 3 6 29.65 1004 10 16.09344 0 0
9:15 am 09:15 Sunny 63 17 50 10 64 64 WSW 7 11 29.65 1004 10 16.09344 0 0
9:35 am 09:35 Partly Cloudy 64 18 50 10 60 60 WSW 6 9 29.68 1005 10 16.09344 0 0
9:55 am 09:55 Partly Cloudy 66 19 50 10 56 56 W 5 7 29.68 1005 10 16.09344 0 0
10:15 am 10:15 Mostly Cloudy 68 20 50 10 53 53 NW 8 13 29.68 1005 10 16.09344 0 0
10:35 am 10:35 Cloudy 66 19 50 10 56 56 WNW 15 24 29.68 1005 10 16.09344 0 0
10:55 am 10:55 Cloudy 68 20 50 10 53 53 WNW 14 22 29.71 1006 10 16.09344 0 0
11:15 am 11:15 Cloudy 68 20 48 9 49 49 NNW 17 28 29.71 1006 10 16.09344 0 0
11:35 am 11:35 Cloudy 66 19 50 10 56 56 N 8 13 29.71 1006 10 16.09344 0 0
11:55 am 11:55 Mostly Cloudy 66 19 50 10 56 56 NNE 8 13 29.71 1006 10 16.09344 0 0
12:15 pm 12:15 Mostly Cloudy 68 20 50 10 53 53 NNE 3 6 29.71 1006 10 16.09344 0 0
12:35 pm 12:35 Mostly Cloudy 68 20 48 9 49 49 NNW 8 13 29.68 1005 10 16.09344 0 0
12:55 pm 12:55 Partly Cloudy 66 19 48 9 52 52 NNW 10 17 29.68 1005 10 16.09344 0 0
1:15 pm 13:15 Sunny 64 18 48 9 56 56 NNW 13 20 29.68 1005 10 16.09344 0 0
1:35 pm 13:35 Sunny 66 19 46 8 49 49 NNW 9 15 29.68 1005 10 16.09344 0 0
1:55 pm 13:55 Partly Cloudy 64 18 46 8 52 52 NNE 10 17 29.68 1005 10 16.09344 0 0
2:15 pm 14:15 Sunny 64 18 46 8 52 52 N 7 11 29.68 1005 10 16.09344 0 0
2:35 pm 14:35 Sunny 64 18 46 8 52 52 N 8 13 29.68 1005 10 16.09344 0 0
2:55 pm 14:55 Sunny 64 18 46 8 52 52 N 12 19 29.68 1005 10 16.09344 0 0
3:15 pm 15:15 Sunny 64 18 46 8 52 52 NNW 9 15 29.68 1005 10 16.09344 0 0
3:35 pm 15:35 Partly Cloudy 64 18 46 8 52 52 N 9 15 29.68 1005 10 16.09344 0 0
3:55 pm 15:55 Mostly Cloudy 64 18 46 8 52 52 N 8 13 29.68 1005 10 16.09344 0 0
4:15 pm 16:15 Cloudy 63 17 46 8 56 56 NNE 12 19 29.68 1005 10 16.09344 0 0
4:35 pm 16:35 Cloudy 63 17 46 8 56 56 NNE 9 15 29.68 1005 10 16.09344 0 0
4:55 pm 16:55 Cloudy 61 16 45 7 55 55 N 7 11 29.68 1005 10 16.09344 0 0
5:15 pm 17:15 Cloudy 61 16 45 7 55 55 NE 10 17 29.68 1005 10 16.09344 0 0
5:35 pm 17:35 Mostly Cloudy 61 16 45 7 55 55 NE 10 17 29.68 1005 10 16.09344 0 0
5:55 pm 17:55 Partly Cloudy 59 15 45 7 59 59 NNE 7 11 29.68 1005 10 16.09344 0 0
6:15 pm 18:15 Clear 59 15 45 7 59 59 NNE 10 17 29.68 1005 10 16.09344 0 0
6:35 pm 18:35 Clear 59 15 43 6 55 55 NNE 9 15 29.68 1005 10 16.09344 0 0
6:55 pm 18:55 Clear 57 14 43 6 59 59 NNE 10 17 29.68 1005 10 16.09344 0 0
7:15 pm 19:15 Mostly Cloudy 57 14 43 6 59 59 NNE 8 13 29.68 1005 10 16.09344 0 0
7:35 pm 19:35 Cloudy 57 14 43 6 59 59 NNE 8 13 29.68 1005 10 16.09344 0 0
7:55 pm 19:55 Cloudy 55 13 43 6 63 63 NE 8 13 29.68 1005 10 16.09344 0 0
8:15 pm 20:15 Cloudy 55 13 43 6 63 63 NE 10 17 29.65 1004 10 16.09344 0 0
8:35 pm 20:35 Partly Cloudy 54 12 45 7 72 72 NE 7 11 29.65 1004 10 16.09344 0 0
8:55 pm 20:55 Clear 54 12 45 7 72 72 NE 7 11 29.65 1004 10 16.09344 0 0
9:15 pm 21:15 Clear 54 12 43 6 67 67 ENE 6 9 29.65 1004 10 16.09344 0 0
9:35 pm 21:35 Clear 54 12 43 6 67 67 NE 6 9 29.65 1004 10 16.09344 0 0
9:55 pm 21:55 Clear 54 12 43 6 67 67 NE 5 7 29.65 1004 10 16.09344 0 0
10:15 pm 22:15 Clear 54 12 43 6 67 67 N 7 11 29.65 1004 10 16.09344 0 0
10:35 pm 22:35 Partly Cloudy 52 11 43 6 72 72 NNE 8 13 29.65 1004 10 16.09344 0 0
10:55 pm 22:55 Cloudy 52 11 43 6 72 72 NNE 8 13 29.65 1004 10 16.09344 0 0
11:15 pm 23:15 Cloudy 52 11 43 6 72 72 NNE 6 9 29.62 1003 10 16.09344 0 0
11:35 pm 23:35 Cloudy 50 10 43 6 76 76 NNE 9 15 29.62 1003 10 16.09344 0 0
11:55 pm 23:55 Cloudy with Light Drizzle 50 10 43 6 76 76 NE 8 13 29.62 1003 10 16.09344 0 0

Powered by AerisWeather